QPF
0.00 0.00 0.00 0.00 0.00 0.00 0.00 0.00 0.00 0.00 0.00 0.00 0.00 0.00 0.00 0.00 0.00 0.00 0.00 0.00 0.00 0.00 0.00 0.00 0.00 0.00 0.00 0.00 0.00 0.00 0.00 0.00 0.00 0.00 0.00 0.00 0.00 0.00 0.00 0.00 0.00 0.01 0.03 0.05 0.04
0.00 0.00 0.00 0.00 0.00 0.00 0.00 0.00 0.00 0.00 0.00 0.00 0.00 0.00 0.00 0.00 0.00 0.00 0.00 0.00 0.00 0.00 0.00 0.00 0.00 0.00 0.00 0.00 0.00 0.00 0.00 0.00 0.00 0.00 0.00 0.00 0.00 0.00 0.00 0.00 0.00 0.02 0.09 0.24 0.20
0.00 0.00 0.00 0.00 0.00 0.00 0.00 0.00 0.00 0.00 0.00 0.00 0.00 0.00 0.00 0.00 0.00 0.00 0.00 0.00 0.00 0.00 0.00 0.00 0.00 0.00 0.00 0.00 0.00 0.00 0.00 0.00 0.00 0.00 0.00 0.00 0.00 0.00 0.00 0.00 0.01 0.01 0.05 0.16 0.31
0.00 0.00 0.00 0.00 0.00 0.00 0.00 0.00 0.00 0.00 0.00 0.00 0.00 0.00 0.00 0.00 0.00 0.00 0.00 0.00 0.00 0.00 0.00 0.00 0.00 0.00 0.00 0.00 0.00 0.00 0.00 0.00 0.00 0.00 0.00 0.00 0.00 0.00 0.00 0.00 0.00 0.00 0.00 0.03 0.18
0.00 0.00 0.00 0.00 0.00 0.00 0.00 0.00 0.00 0.00 0.00 0.00 0.00 0.00 0.00 0.00 0.00 0.00 0.00 0.00 0.00 0.00 0.00 0.00 0.00 0.00 0.00 0.00 0.00 0.00 0.00 0.00 0.00 0.00 0.00 0.00 0.00 0.00 0.00 0.00 0.01 0.00 0.02 0.09 0.09
0.00 0.00 0.00 0.00 0.00 0.00 0.00 0.00 0.00 0.00 0.00 0.00 0.00 0.00 0.00 0.00 0.00 0.00 0.00 0.00 0.00 0.00 0.00 0.00 0.00 0.00 0.00 0.00 0.00 0.00 0.00 0.00 0.00 0.00 0.00 0.00 0.00 0.00 0.00 0.00 0.01 0.02 0.08 0.14 0.19
0.00 0.00 0.00 0.00 0.00 0.00 0.00 0.00 0.00 0.00 0.00 0.00 0.00 0.00 0.00 0.00 0.00 0.00 0.00 0.00 0.00 0.00 0.00 0.00 0.00 0.00 0.00 0.00 0.00 0.00 0.00 0.00 0.00 0.00 0.00 0.00 0.00 0.00 0.00 0.00 0.01 0.04 0.09 0.19 0.14
0.00 0.00 0.00 0.00 0.00 0.00 0.00 0.00 0.00 0.00 0.00 0.00 0.00 0.00 0.00 0.00 0.00 0.00 0.00 0.00 0.00 0.00 0.00 0.00 0.00 0.00 0.00 0.00 0.00 0.00 0.00 0.00 0.00 0.00 0.00 0.00 0.00 0.02 0.00 0.00 0.00 0.04 0.08 0.13 0.07
0.00 0.00 0.00 0.00 0.00 0.00 0.00 0.00 0.00 0.00 0.00 0.00 0.00 0.00 0.00 0.00 0.00 0.00 0.00 0.00 0.00 0.00 0.00 0.00 0.00 0.00 0.00 0.00 0.00 0.00 0.00 0.00 0.00 0.00 0.00 0.00 0.01 0.03 0.01 0.01 0.03 0.08 0.05 0.06 0.02
0.00 0.00 0.00 0.00 0.00 0.00 0.00 0.00 0.00 0.00 0.00 0.00 0.00 0.00 0.00 0.00 0.00 0.00 0.00 0.00 0.00 0.00 0.00 0.00 0.00 0.00 0.00 0.00 0.00 0.00 0.00 0.00 0.00 0.00 0.00 0.00 0.00 0.02 0.02 0.04 0.02 0.09 0.04 0.02 0.03
0.00 0.00 0.00 0.00 0.00 0.00 0.00 0.00 0.00 0.00 0.00 0.00 0.00 0.00 0.00 0.00 0.00 0.00 0.00 0.00 0.00 0.00 0.00 0.00 0.00 0.00 0.00 0.00 0.00 0.00 0.00 0.00 0.00 0.00 0.00 0.00 0.00 0.00 0.00 0.01 0.00 0.04 0.01 0.01 0.02
0.00 0.00 0.00 0.00 0.00 0.00 0.00 0.00 0.00 0.00 0.00 0.00 0.00 0.00 0.00 0.00 0.00 0.00 0.00 0.00 0.00 0.00 0.00 0.00 0.00 0.00 0.00 0.00 0.00 0.00 0.00 0.00 0.00 0.00 0.00 0.00 0.00 0.00 0.00 0.00 0.00 0.01 0.00 0.01 0.01
0.00 0.00 0.00 0.00 0.00 0.00 0.00 0.00 0.00 0.00 0.00 0.00 0.00 0.00 0.00 0.00 0.00 0.00 0.00 0.00 0.00 0.00 0.00 0.00 0.00 0.00 0.00 0.00 0.00 0.00 0.00 0.00 0.00 0.00 0.00 0.00 0.00 0.00 0.00 0.00 0.00 0.00 0.01 0.00 0.01
0.00 0.00 0.00 0.00 0.00 0.00 0.00 0.00 0.00 0.00 0.00 0.00 0.00 0.00 0.00 0.00 0.00 0.00 0.00 0.00 0.00 0.00 0.00 0.00 0.00 0.00 0.00 0.00 0.00 0.00 0.00 0.00 0.00 0.00 0.00 0.00 0.00 0.00 0.00 0.00 0.00 0.00 0.00 0.00 0.00
0.00 0.00 0.00 0.00 0.00 0.00 0.00 0.00 0.00 0.00 0.00 0.00 0.00 0.00 0.00 0.00 0.00 0.00 0.00 0.00 0.00 0.00 0.00 0.00 0.00 0.00 0.00 0.00 0.00 0.00 0.00 0.00 0.00 0.00 0.00 0.00 0.00 0.00 0.00 0.00 0.00 0.00 0.00 0.00 0.00
0.00 0.00 0.00 0.00 0.00 0.00 0.00 0.00 0.00 0.00 0.00 0.00 0.00 0.00 0.00 0.00 0.00 0.00 0.00 0.00 0.00 0.00 0.00 0.00 0.00 0.00 0.00 0.00 0.00 0.00 0.00 0.00 0.00 0.00 0.00 0.00 0.00 0.00 0.00 0.00 0.00 0.00 0.00 0.00 0.00
0.00 0.00 0.00 0.00 0.00 0.00 0.00 0.00 0.00 0.00 0.00 0.00 0.00 0.00 0.00 0.00 0.00 0.00 0.00 0.00 0.00 0.00 0.00 0.00 0.00 0.00 0.00 0.00 0.00 0.00 0.00 0.00 0.00 0.00 0.00 0.00 0.00 0.00 0.00 0.00 0.00 0.00 0.00 0.00 0.00
0.00 0.00 0.00 0.00 0.00 0.00 0.00 0.00 0.00 0.00 0.00 0.00 0.00 0.00 0.00 0.00 0.00 0.00 0.00 0.00 0.00 0.00 0.00 0.00 0.00 0.00 0.00 0.00 0.00 0.00 0.00 0.00 0.00 0.00 0.00 0.00 0.00 0.00 0.00 0.00 0.00 0.00 0.00 0.00 0.00
0.00 0.00 0.00 0.00 0.00 0.00 0.00 0.00 0.00 0.00 0.00 0.00 0.00 0.00 0.00 0.00 0.00 0.00 0.00 0.00 0.00 0.00 0.00 0.00 0.00 0.00 0.00 0.00 0.00 0.00 0.00 0.00 0.00 0.00 0.00 0.00 0.00 0.00 0.00 0.00 0.00 0.00 0.00 0.00 0.00
0.00 0.00 0.00 0.00 0.00 0.00 0.00 0.00 0.00 0.00 0.00 0.00 0.00 0.00 0.00 0.00 0.00 0.00 0.00 0.00 0.00 0.00 0.00 0.00 0.00 0.00 0.00 0.00 0.00 0.00 0.00 0.00 0.00 0.00 0.00 0.00 0.00 0.00 0.00 0.00 0.00 0.00 0.00 0.00 0.00
0.00 0.00 0.00 0.00 0.00 0.00 0.00 0.00 0.00 0.00 0.00 0.00 0.00 0.00 0.00 0.00 0.00 0.00 0.00 0.00 0.00 0.00 0.00 0.00 0.00 0.00 0.00 0.00 0.00 0.00 0.00 0.00 0.00 0.00 0.00 0.00 0.00 0.00 0.00 0.00 0.00 0.00 0.00 0.00 0.00
0.00 0.00 0.00 0.00 0.00 0.00 0.00 0.00 0.00 0.00 0.00 0.00 0.00 0.00 0.00 0.00 0.00 0.00 0.00 0.00 0.00 0.00 0.00 0.00 0.00 0.00 0.00 0.00 0.00 0.00 0.00 0.00 0.00 0.00 0.00 0.00 0.00 0.00 0.00 0.00 0.00 0.00 0.00 0.00 0.00
0.00 0.00 0.00 0.00 0.00 0.00 0.00 0.00 0.00 0.00 0.00 0.00 0.00 0.00 0.00 0.00 0.00 0.00 0.00 0.00 0.00 0.00 0.00 0.00 0.00 0.00 0.00 0.00 0.00 0.00 0.00 0.00 0.00 0.00 0.00 0.00 0.00 0.00 0.00 0.00 0.00 0.00 0.00 0.00 0.00
0.00 0.00 0.00 0.00 0.00 0.00 0.00 0.00 0.00 0.00 0.00 0.00 0.00 0.00 0.00 0.00 0.00 0.00 0.00 0.00 0.00 0.00 0.00 0.00 0.00 0.00 0.00 0.00 0.00 0.00 0.00 0.00 0.00 0.00 0.00 0.00 0.00 0.00 0.00 0.00 0.00 0.00 0.00 0.00 0.00
0.00 0.00 0.00 0.00 0.00 0.00 0.00 0.00 0.00 0.00 0.00 0.00 0.00 0.00 0.00 0.00 0.00 0.00 0.00 0.00 0.00 0.00 0.00 0.00 0.00 0.00 0.00 0.00 0.00 0.00 0.00 0.00 0.00 0.00 0.00 0.00 0.00 0.00 0.00 0.00 0.00 0.00 0.00 0.00 0.00
0.00 0.00 0.00 0.00 0.00 0.00 0.00 0.00 0.00 0.00 0.00 0.00 0.00 0.00 0.00 0.00 0.00 0.00 0.00 0.00 0.00 0.00 0.00 0.00 0.00 0.00 0.00 0.00 0.00 0.00 0.00 0.00 0.00 0.00 0.00 0.00 0.00 0.00 0.00 0.00 0.00 0.00 0.00 0.00 0.00
0.00 0.00 0.00 0.00 0.00 0.00 0.00 0.00 0.00 0.00 0.00 0.00 0.00 0.00 0.00 0.00 0.00 0.00 0.00 0.00 0.00 0.00 0.00 0.00 0.00 0.00 0.00 0.00 0.00 0.00 0.00 0.00 0.00 0.00 0.00 0.00 0.00 0.00 0.00 0.00 0.00 0.00 0.00 0.00 0.00
MSLP
1023.60 1023.56 1023.30 1023.13 1023.07 1023.00 1022.78 1022.43 1022.15 1021.89 1021.63 1021.37 1021.01 1020.72 1020.52 1020.22 1019.63 1019.22 1019.65 1019.94 1019.70 1019.36 1018.95 1018.62 1018.07 1017.61 1017.17 1017.19 1017.13 1017.37 1018.26 1017.88 1017.25 1016.80 1016.06 1014.99 1014.30 1013.09 1012.15 1011.17 1010.18 1009.80 1009.53 1008.81 1009.39
1023.81 1023.65 1023.53 1023.27 1023.11 1023.03 1022.87 1022.54 1022.14 1021.89 1021.62 1021.38 1021.09 1020.78 1020.54 1020.23 1019.97 1019.79 1019.90 1019.63 1019.51 1019.38 1019.21 1019.03 1018.69 1018.35 1018.15 1018.01 1017.77 1018.02 1018.27 1017.49 1017.15 1017.21 1016.73 1015.94 1015.02 1014.20 1013.11 1012.12 1011.03 1010.72 1010.73 1010.16 1010.61
1023.84 1023.77 1023.64 1023.47 1023.25 1022.95 1022.81 1022.58 1022.13 1021.79 1021.51 1021.25 1020.99 1020.74 1020.53 1020.30 1020.28 1020.12 1019.68 1019.63 1019.63 1019.37 1019.27 1019.25 1019.25 1019.30 1019.25 1018.93 1018.72 1018.37 1018.14 1017.59 1016.92 1016.99 1016.75 1016.48 1015.64 1015.07 1014.27 1013.04 1012.50 1012.39 1012.09 1011.70 1011.32
1023.84 1023.82 1023.75 1023.51 1023.37 1023.00 1022.70 1022.51 1022.12 1021.77 1021.44 1021.10 1020.87 1020.71 1020.46 1020.44 1020.67 1020.07 1019.69 1019.49 1019.32 1019.27 1019.53 1019.41 1019.70 1020.18 1020.26 1020.12 1019.78 1019.64 1018.66 1018.08 1017.43 1017.12 1017.02 1016.76 1016.23 1015.39 1014.82 1014.22 1013.52 1012.67 1011.69 1011.66 1012.21
1023.88 1023.78 1023.63 1023.48 1023.35 1023.05 1022.63 1022.31 1022.07 1021.68 1021.35 1021.02 1020.81 1020.73 1020.58 1020.47 1020.20 1019.72 1019.60 1019.38 1019.15 1019.20 1019.51 1019.67 1020.15 1020.50 1020.92 1020.91 1020.23 1019.96 1019.36 1018.74 1018.12 1017.67 1017.18 1016.57 1016.54 1016.09 1015.01 1014.06 1013.53 1012.55 1011.86 1011.49 1011.97
1023.94 1023.90 1023.63 1023.40 1023.25 1022.94 1022.58 1022.21 1021.84 1021.55 1021.26 1021.00 1020.82 1020.76 1020.71 1020.31 1019.79 1019.53 1019.52 1019.32 1019.59 1019.66 1019.55 1019.80 1020.13 1020.59 1020.75 1020.80 1020.94 1020.29 1019.89 1019.23 1018.47 1017.83 1017.44 1016.92 1016.87 1016.46 1014.88 1014.29 1014.01 1013.27 1012.69 1012.30 1012.43
1023.95 1023.88 1023.64 1023.43 1023.12 1022.83 1022.42 1022.05 1021.72 1021.29 1021.09 1020.86 1020.79 1020.85 1020.51 1020.17 1019.71 1019.62 1019.52 1019.33 1019.59 1019.75 1019.87 1020.18 1020.42 1020.72 1020.35 1020.85 1020.81 1020.62 1020.13 1019.27 1018.08 1017.71 1017.61 1017.38 1017.10 1016.72 1015.67 1014.37 1014.34 1013.66 1013.47 1013.51 1013.22
1023.86 1023.88 1023.61 1023.37 1023.06 1022.65 1022.19 1021.75 1021.44 1021.14 1020.94 1020.71 1020.71 1020.77 1020.28 1019.57 1019.63 1019.59 1019.58 1019.40 1019.47 1019.57 1019.95 1020.25 1020.69 1020.95 1020.76 1020.85 1020.81 1020.69 1020.61 1019.91 1018.11 1017.91 1017.70 1018.04 1017.93 1017.22 1016.04 1014.77 1014.76 1014.58 1014.73 1014.50 1013.71
1023.66 1023.67 1023.56 1023.24 1022.98 1022.48 1021.95 1021.51 1021.20 1020.92 1020.77 1020.74 1020.87 1020.70 1020.22 1019.62 1019.81 1019.70 1019.69 1019.60 1019.62 1019.48 1019.74 1019.89 1020.66 1020.79 1021.08 1020.78 1021.00 1021.25 1021.43 1020.76 1019.35 1018.54 1018.56 1018.96 1018.93 1018.54 1016.97 1015.76 1015.96 1015.41 1014.63 1014.03 1014.21
1023.50 1023.45 1023.38 1023.12 1022.84 1022.29 1021.73 1021.22 1021.07 1021.02 1020.85 1020.63 1020.61 1020.98 1020.26 1020.37 1020.11 1019.86 1019.57 1019.59 1019.79 1019.64 1019.80 1020.23 1020.72 1020.85 1020.86 1020.83 1021.51 1021.69 1021.61 1021.51 1020.95 1020.51 1020.02 1020.12 1020.01 1018.92 1017.84 1017.10 1016.89 1016.12 1015.78 1015.33 1015.10
1023.41 1023.33 1023.19 1023.02 1022.66 1022.18 1021.80 1021.48 1021.78 1021.72 1021.16 1021.31 1021.18 1020.89 1020.79 1020.64 1020.06 1020.02 1019.64 1019.57 1019.73 1019.75 1019.92 1020.25 1020.78 1020.65 1020.72 1020.74 1021.59 1021.73 1021.79 1021.77 1021.51 1020.54 1020.52 1020.97 1020.30 1019.58 1018.03 1017.41 1017.32 1016.85 1016.39 1015.99 1015.78
1023.33 1023.32 1023.09 1022.86 1022.60 1022.04 1021.89 1022.49 1023.14 1023.47 1022.42 1021.53 1021.18 1021.05 1020.95 1020.89 1020.62 1020.15 1019.90 1019.94 1019.85 1019.97 1019.85 1020.43 1020.36 1019.76 1020.13 1019.85 1020.63 1021.41 1021.96 1022.01 1021.88 1021.44 1020.65 1021.08 1021.14 1021.02 1019.88 1018.87 1018.50 1018.28 1017.65 1017.47 1016.87
1023.22 1023.19 1023.12 1022.76 1022.46 1022.54 1022.80 1023.23 1023.18 1023.24 1022.92 1021.85 1021.34 1021.12 1021.18 1021.11 1020.90 1020.50 1020.47 1020.45 1020.25 1020.02 1020.09 1020.34 1019.94 1019.25 1019.69 1019.60 1020.27 1020.99 1021.12 1021.31 1021.47 1021.36 1021.07 1020.73 1020.95 1021.47 1021.69 1021.16 1020.59 1019.89 1019.58 1018.95 1018.21
1023.14 1023.13 1022.99 1022.67 1022.88 1022.74 1023.34 1023.39 1023.15 1023.15 1023.34 1022.62 1021.60 1021.20 1021.11 1021.01 1020.98 1020.51 1020.45 1020.76 1020.46 1020.35 1020.17 1020.04 1019.68 1019.56 1019.30 1019.07 1019.56 1020.18 1020.07 1020.19 1020.63 1020.86 1021.04 1020.72 1022.76 1023.01 1022.96 1022.64 1022.03 1021.20 1020.47 1019.78 1019.74
1023.08 1023.12 1022.98 1022.79 1023.11 1023.18 1023.59 1023.35 1023.32 1023.43 1023.90 1023.08 1021.76 1021.08 1020.83 1021.29 1021.21 1020.71 1020.56 1020.55 1021.02 1020.75 1020.73 1020.25 1019.75 1019.50 1019.41 1019.19 1019.26 1019.03 1018.77 1019.06 1019.31 1020.53 1020.67 1020.94 1021.99 1023.37 1022.97 1022.52 1022.13 1021.72 1021.47 1020.84 1020.19
1023.09 1023.19 1023.03 1022.93 1023.23 1023.64 1023.39 1023.44 1023.62 1024.14 1023.95 1023.24 1022.31 1021.75 1021.46 1021.35 1021.32 1020.99 1020.89 1020.96 1021.20 1021.22 1021.05 1020.35 1019.65 1019.54 1019.42 1018.71 1018.47 1018.18 1018.39 1018.69 1019.14 1019.84 1021.43 1021.97 1022.02 1022.77 1022.47 1023.08 1022.59 1022.22 1021.91 1021.51 1020.89
1023.09 1023.19 1023.06 1023.10 1023.69 1023.60 1023.61 1024.03 1024.83 1024.69 1024.91 1024.33 1023.24 1022.74 1022.42 1022.34 1022.07 1021.85 1021.96 1022.30 1022.59 1022.48 1022.67 1021.36 1020.30 1019.83 1019.47 1019.09 1018.15 1018.77 1018.55 1019.74 1020.42 1021.01 1022.69 1022.28 1022.60 1023.52 1023.27 1023.08 1022.91 1022.59 1022.16 1021.91 1021.68
1023.02 1023.29 1023.45 1023.61 1023.58 1023.68 1024.24 1024.85 1025.73 1025.27 1024.83 1024.16 1023.88 1023.48 1023.44 1023.32 1022.89 1022.72 1022.79 1023.45 1023.33 1023.41 1023.64 1023.14 1021.42 1020.58 1020.16 1020.24 1020.06 1019.49 1019.49 1020.44 1021.47 1022.38 1023.04 1022.56 1023.27 1023.37 1023.05 1023.04 1022.95 1022.87 1022.92 1022.83 1022.73
1023.06 1023.72 1023.82 1023.98 1023.51 1023.91 1025.02 1026.17 1025.54 1025.40 1024.73 1024.42 1024.44 1024.34 1024.42 1024.10 1023.97 1023.62 1023.69 1024.10 1023.93 1023.86 1024.01 1023.76 1022.31 1020.95 1020.45 1020.25 1020.55 1019.73 1019.90 1020.36 1021.18 1022.51 1023.00 1023.52 1023.62 1023.18 1022.85 1023.05 1023.22 1023.36 1023.46 1023.67 1023.72
1023.25 1023.91 1024.22 1024.04 1023.93 1024.24 1025.86 1026.52 1026.11 1025.54 1024.83 1024.44 1024.79 1024.98 1025.40 1025.11 1024.94 1024.71 1024.46 1024.43 1024.15 1023.93 1023.92 1024.00 1023.49 1021.91 1021.06 1020.43 1020.30 1020.37 1020.21 1020.61 1021.21 1022.63 1023.42 1023.64 1023.42 1023.26 1023.47 1023.65 1023.84 1024.07 1024.29 1024.35 1024.49
1023.18 1024.11 1024.38 1024.16 1024.13 1025.16 1026.74 1026.97 1026.28 1025.85 1025.31 1024.91 1025.02 1025.10 1025.37 1025.59 1025.55 1025.48 1024.91 1024.77 1024.24 1024.20 1023.96 1023.79 1024.05 1022.91 1022.02 1022.21 1021.86 1021.16 1020.81 1020.75 1021.33 1021.94 1022.28 1023.06 1023.30 1022.56 1023.22 1023.82 1024.23 1024.44 1024.60 1024.69 1024.59
1023.07 1024.39 1024.56 1024.40 1025.49 1026.49 1027.29 1026.71 1026.24 1026.02 1025.66 1025.19 1025.05 1025.02 1025.28 1025.58 1025.83 1025.89 1025.32 1024.82 1024.38 1024.45 1024.56 1024.37 1024.42 1024.27 1023.29 1022.58 1022.27 1022.05 1021.84 1021.45 1021.60 1022.16 1022.15 1022.32 1023.10 1022.60 1023.09 1023.62 1024.25 1024.77 1024.81 1024.95 1025.14
1023.12 1024.41 1024.67 1024.77 1025.67 1026.93 1027.42 1027.30 1026.71 1026.15 1025.69 1025.49 1025.40 1025.14 1025.18 1025.62 1026.01 1025.59 1025.44 1025.19 1024.95 1024.83 1024.98 1025.09 1025.38 1025.16 1024.38 1023.84 1022.99 1022.66 1022.23 1021.86 1021.70 1021.92 1022.20 1022.82 1023.30 1023.06 1023.10 1023.62 1024.13 1024.64 1024.99 1025.13 1025.20
1022.60 1024.21 1025.08 1025.15 1025.55 1025.85 1027.13 1027.25 1026.67 1025.93 1025.72 1025.24 1025.16 1025.35 1025.69 1026.08 1026.25 1026.05 1025.74 1025.46 1025.45 1025.39 1025.49 1025.73 1026.25 1026.39 1025.80 1024.97 1024.35 1023.58 1022.93 1022.41 1022.19 1022.41 1022.15 1022.02 1022.69 1023.35 1023.64 1023.96 1024.24 1024.64 1024.94 1025.25 1025.33
1021.63 1022.42 1022.75 1024.78 1025.20 1025.31 1025.74 1025.71 1026.12 1025.68 1025.62 1025.36 1025.27 1024.79 1025.33 1026.49 1026.70 1026.41 1026.18 1025.90 1025.94 1025.90 1026.21 1026.87 1027.68 1027.83 1027.11 1026.33 1025.63 1024.45 1023.78 1023.28 1022.74 1022.13 1022.09 1021.75 1021.89 1022.15 1022.90 1023.66 1023.95 1024.39 1024.83 1025.20 1025.49
1020.70 1021.70 1022.53 1022.94 1023.28 1024.49 1024.62 1024.95 1024.77 1024.90 1024.86 1024.98 1024.90 1024.54 1024.86 1025.31 1025.35 1025.61 1025.91 1026.21 1026.00 1026.65 1027.12 1027.74 1029.06 1029.76 1029.34 1028.00 1026.91 1025.49 1024.10 1023.83 1023.01 1022.43 1021.79 1021.44 1021.55 1021.18 1022.31 1023.24 1024.04 1024.10 1024.53 1025.02 1025.44
1019.73 1019.80 1020.30 1022.07 1022.86 1023.55 1023.18 1022.77 1023.06 1023.24 1023.67 1023.35 1023.78 1024.14 1024.85 1024.77 1024.98 1025.16 1025.73 1026.05 1026.24 1026.89 1028.19 1028.99 1030.07 1031.85 1031.37 1029.72 1028.05 1025.87 1023.51 1022.88 1022.18 1021.72 1021.43 1021.33 1020.73 1021.23 1022.49 1022.69 1023.29 1023.95 1024.38 1024.85 1025.22
Thickness
5622 5622 5624 5625 5624 5623 5624 5626 5627 5627 5629 5629 5629 5628 5626 5624 5625 5625 5617 5613 5611 5608 5609 5606 5605 5601 5598 5591 5587 5578 5550 5550 5558 5554 5551 5561 5571 5590 5611 5626 5642 5646 5660 5677 5679
5616 5618 5618 5620 5620 5619 5618 5620 5623 5624 5625 5625 5624 5624 5621 5621 5619 5617 5611 5609 5606 5603 5601 5594 5588 5584 5573 5576 5575 5560 5539 5548 5545 5526 5519 5528 5545 5560 5580 5604 5623 5629 5646 5658 5660
5611 5611 5613 5614 5615 5616 5615 5615 5619 5621 5622 5622 5621 5620 5618 5616 5614 5610 5609 5605 5600 5597 5593 5586 5578 5568 5561 5564 5561 5553 5534 5534 5524 5506 5498 5505 5523 5540 5554 5578 5591 5602 5622 5634 5646
5606 5607 5608 5609 5609 5612 5613 5612 5615 5616 5618 5619 5618 5615 5614 5611 5608 5605 5603 5601 5596 5592 5584 5578 5566 5553 5550 5543 5541 5519 5523 5512 5499 5488 5481 5486 5501 5519 5541 5556 5573 5594 5621 5628 5630
5601 5602 5604 5605 5605 5607 5609 5610 5611 5613 5615 5615 5614 5611 5609 5606 5602 5603 5600 5599 5595 5589 5579 5569 5557 5548 5537 5529 5525 5508 5498 5485 5472 5469 5468 5479 5484 5497 5526 5545 5563 5587 5610 5623 5628
5594 5595 5599 5601 5601 5603 5605 5607 5609 5610 5611 5611 5610 5606 5604 5603 5602 5600 5597 5596 5588 5582 5575 5565 5555 5542 5535 5526 5507 5497 5482 5468 5463 5460 5460 5468 5471 5482 5516 5531 5549 5576 5593 5611 5621
5589 5590 5594 5596 5598 5599 5602 5604 5605 5608 5609 5608 5606 5602 5601 5598 5598 5596 5593 5592 5585 5577 5567 5557 5548 5539 5537 5520 5508 5489 5471 5463 5466 5464 5460 5465 5467 5480 5495 5521 5538 5568 5581 5592 5606
5586 5585 5588 5590 5593 5596 5600 5602 5603 5605 5605 5605 5602 5599 5598 5599 5596 5594 5589 5588 5582 5576 5564 5554 5544 5536 5530 5519 5506 5492 5472 5445 5473 5466 5464 5459 5446 5471 5486 5510 5526 5550 5571 5581 5594
5582 5582 5583 5586 5588 5593 5597 5599 5600 5602 5601 5599 5597 5595 5594 5596 5591 5591 5586 5583 5579 5574 5563 5555 5544 5536 5531 5522 5507 5481 5443 5460 5469 5473 5464 5459 5449 5459 5487 5510 5523 5542 5561 5576 5588
5578 5578 5578 5581 5584 5589 5593 5597 5597 5596 5596 5595 5594 5589 5591 5586 5586 5586 5585 5580 5574 5570 5562 5550 5538 5529 5527 5524 5511 5490 5474 5463 5451 5460 5456 5450 5450 5467 5484 5505 5511 5538 5553 5564 5577
5573 5574 5575 5577 5579 5583 5588 5590 5588 5589 5590 5584 5584 5585 5583 5581 5584 5582 5583 5579 5574 5571 5563 5552 5531 5523 5537 5520 5497 5484 5482 5466 5459 5473 5466 5458 5464 5474 5494 5504 5509 5531 5546 5562 5572
5567 5568 5571 5573 5574 5578 5581 5576 5569 5569 5578 5581 5580 5578 5578 5577 5575 5579 5577 5576 5574 5562 5564 5541 5526 5549 5548 5540 5526 5493 5476 5471 5472 5475 5480 5472 5469 5475 5492 5504 5515 5529 5544 5552 5567
5563 5564 5565 5568 5570 5570 5567 5565 5566 5565 5568 5577 5575 5575 5572 5573 5572 5573 5570 5567 5571 5569 5560 5546 5552 5555 5550 5546 5535 5517 5506 5493 5488 5476 5475 5488 5486 5480 5484 5492 5516 5529 5535 5543 5557
5558 5559 5561 5564 5563 5564 5558 5558 5561 5562 5538 5567 5571 5570 5571 5571 5571 5573 5570 5564 5569 5566 5563 5554 5556 5551 5549 5551 5543 5534 5528 5520 5507 5504 5484 5506 5480 5475 5475 5481 5496 5512 5527 5538 5544
5553 5554 5556 5557 5556 5555 5553 5554 5554 5553 5540 5560 5565 5568 5570 5566 5566 5569 5568 5566 5559 5562 5560 5558 5553 5545 5548 5550 5545 5549 5545 5541 5539 5525 5520 5509 5502 5488 5491 5502 5507 5512 5517 5529 5540
5547 5547 5549 5551 5551 5547 5549 5548 5548 5528 5538 5547 5557 5558 5565 5567 5566 5566 5566 5562 5558 5557 5558 5562 5562 5556 5550 5553 5549 5555 5553 5550 5548 5536 5498 5513 5510 5503 5509 5500 5510 5516 5519 5526 5535
5543 5543 5545 5545 5543 5543 5543 5539 5522 5522 5530 5528 5543 5550 5553 5550 5558 5559 5552 5534 5520 5527 5512 5539 5559 5555 5552 5548 5560 5544 5551 5517 5511 5505 5489 5518 5509 5495 5505 5510 5510 5516 5522 5525 5530
5540 5538 5538 5538 5539 5539 5535 5519 5523 5504 5500 5537 5539 5548 5545 5541 5553 5552 5553 5520 5534 5526 5495 5505 5525 5550 5549 5541 5534 5532 5545 5507 5510 5511 5514 5510 5500 5498 5509 5508 5510 5514 5513 5516 5518
5535 5532 5532 5533 5535 5534 5519 5493 5519 5508 5535 5535 5537 5529 5515 5543 5540 5545 5533 5520 5530 5527 5511 5493 5518 5550 5551 5548 5539 5546 5532 5542 5530 5473 5498 5494 5509 5513 5513 5509 5504 5506 5505 5503 5504
5529 5527 5525 5527 5528 5526 5499 5517 5509 5521 5534 5538 5524 5525 5498 5506 5524 5526 5533 5527 5528 5530 5527 5521 5508 5536 5545 5548 5547 5542 5545 5529 5508 5482 5485 5503 5498 5493 5501 5500 5499 5494 5493 5495 5494
5524 5515 5519 5521 5524 5508 5494 5486 5494 5514 5523 5533 5522 5501 5524 5504 5498 5508 5528 5523 5526 5525 5523 5528 5513 5524 5531 5517 5519 5518 5525 5532 5528 5520 5523 5508 5503 5507 5506 5499 5494 5494 5494 5493 5495
5516 5508 5512 5514 5495 5471 5486 5488 5513 5509 5512 5513 5512 5527 5519 5509 5505 5500 5517 5520 5521 5517 5517 5519 5514 5485 5530 5530 5529 5523 5523 5528 5510 5527 5518 5526 5495 5514 5503 5498 5493 5492 5492 5491 5488
5502 5498 5503 5504 5483 5471 5471 5476 5492 5503 5505 5503 5498 5513 5520 5513 5499 5511 5504 5508 5509 5510 5510 5509 5481 5468 5497 5508 5520 5521 5530 5531 5525 5509 5526 5495 5491 5501 5502 5497 5492 5487 5485 5485 5485
5499 5491 5490 5494 5490 5492 5466 5469 5478 5497 5501 5505 5507 5507 5502 5492 5477 5489 5502 5502 5499 5501 5501 5500 5497 5494 5497 5511 5503 5513 5524 5527 5520 5485 5513 5512 5496 5492 5492 5489 5486 5483 5480 5478 5478
5494 5503 5499 5480 5479 5486 5484 5484 5478 5476 5487 5494 5495 5499 5492 5467 5476 5475 5477 5493 5493 5495 5493 5478 5459 5471 5496 5501 5495 5503 5504 5505 5515 5517 5508 5519 5503 5505 5495 5486 5484 5480 5477 5476 5474
5491 5492 5487 5490 5489 5489 5491 5479 5490 5486 5480 5479 5483 5489 5490 5479 5491 5474 5486 5482 5484 5483 5483 5479 5447 5441 5436 5469 5474 5483 5489 5485 5494 5505 5512 5520 5509 5509 5496 5484 5478 5482 5478 5472 5468
5490 5498 5502 5492 5486 5476 5481 5496 5493 5494 5487 5494 5487 5483 5480 5485 5487 5487 5483 5480 5485 5475 5454 5448 5424 5411 5424 5417 5435 5457 5470 5493 5503 5503 5509 5505 5517 5502 5490 5494 5483 5476 5473 5469 5466